Regional Weather Roundup
Issued by NWS

Home | Current Version | Previous Version | Text Only | Print | Product List | Glossary On
Versions: 1 2 3 4 5 6 7 8 9 10 11 12 13 14 15 16 17 18 19 20 21 22 23 24 25 26 27 28 29 30 31 32 33 34 35 36 37 38 39 40 41 42 43 44 45 46 47 48 49 50
000
ASUS45 KCYS 241410
RWRWY

WYOMING REGIONAL WEATHER ROUNDUP
NATIONAL WEATHER SERVICE CHEYENNE WY
800 AM MDT TUE MAY 24 2016

NOTE:  "FAIR" INDICATES FEW OR NO CLOUDS BELOW 12,000 FEET
WITH NO SIGNIFICANT WEATHER AND/OR OBSTRUCTIONS TO VISIBILITY.

WYZ001-241500-
YELLOWSTONE NATIONAL PARK

CITY           SKY/WX    TMP DP  RH WIND       PRES   REMARKS
LK YELLOWSTONE   N/A     37  28  70 CALM      29.97S
W YELLOWSTONE  NOT AVBL

$$
WYZ002>013-054>058-071-098>099-241500-
NORTHERN WYOMING

CITY           SKY/WX    TMP DP  RH WIND       PRES   REMARKS
JACKSON        SUNNY     37  32  81 CALM      29.95S
CODY           CLOUDY    45  36  70 CALM      29.91S
GREYBULL       FAIR      47  34  60 CALM      29.89S
WORLAND        FAIR      46  36  68 SW3       29.90R
SHERIDAN       FAIR      49  37  63 CALM      29.92R
BUFFALO          N/A    N/A N/A N/A MISG      29.92S
GILLETTE         N/A     51  37  58 N6        29.91S
HULETT         FAIR      52  36  54 N9        29.92S
NEWCASTLE      FAIR      52  30  43 CALM      29.92R

$$
WYZ014>020-022>026-101>103-241500-
CENTRAL WYOMING

CITY           SKY/WX    TMP DP  RH WIND       PRES   REMARKS
BIG PINEY      PTSUNNY   35  31  85 W3        29.98R
PINEDALE       FAIR      34  30  86 NW3       29.98R
DUBOIS         FAIR      37  27  65 N3        29.95S
LANDER         FAIR      44  33  65 E3        29.91R
RIVERTON       FAIR      47  32  56 SW3       29.93R
CASPER         FAIR      47  35  63 N6        29.93S
DOUGLAS        FAIR      49  35  58 NW5       29.94R

$$
WYZ021-027>030-104>119-241500-
SOUTHERN WYOMING

CITY           SKY/WX    TMP DP  RH WIND       PRES   REMARKS
EVANSTON       CLOUDY    41  30  65 NE9       29.93R
KEMMERER         N/A     41  34  75 N9        29.96S
FORT BRIDGER   CLOUDY    43  36  75 N8        29.96F
ROCK SPRINGS   FAIR      45  35  68 NE5       29.94S
DIXON          FAIR      46  33  61 SE6       29.97S
RAWLINS        FAIR      45  33  63 CALM      29.96F
SARATOGA       FAIR      43  32  65 SE3       29.98S
LARAMIE        FAIR      43  35  73 S7        29.98S
CHEYENNE       FAIR      49  41  74 CALM      29.97S
TORRINGTON     FAIR      49  43  80 SE6       29.92S
PINE BLUFFS    CLOUDY    46  43  87 CALM      29.97R

$$



USA.gov is the U.S. government's official web portal to all federal, state and local government web resources and services.